Location: Miller
(40.8333°S, 175.9500°E)
Time: 02:14:13
(UTC+00:00)

Daily predictions for brighter satellites

Satellite Brightness Start Highest point End
(mag) Time Altitude Azimuth Time Altitude Azimuth Time Altitude Azimuth
Cosmos 44 3.8 05:20:56 10° NW 05:25:08 52° SW 05:29:32 10° SSE
Cosmos 1190 Rocket 4.2 05:20:16 10° S 05:25:26 51° ESE 05:30:34 10° NE
Cosmos 2369 Rocket 2.8 05:20:50 10° N 05:26:06 40° ENE 05:31:25 10° SE
USA 276 3.3 05:25:33 10° WSW 05:27:22 20° SSW 05:29:17 10° SSE
Cosmos 1371 Rocket 4.1 05:23:04 10° N 05:28:12 60° ENE 05:33:22 10° SSE
Cosmos 1626 3.7 05:26:54 10° SE 05:28:13 12° ESE 05:29:32 10° E
Meteor 1-20 Rocket 4.2 05:25:22 10° N 05:30:52 88° W 05:36:27 10° S
H-2A R/B 3.7 05:27:02 10° S 05:31:38 34° WSW 05:36:18 10° NW
ATLAS 3B R/B 2.7 05:25:20 10° NNW 05:32:20 78° ENE 05:38:55 10° SE
NOSS 3-1 (A) 4.4 05:23:53 10° NNW 05:33:21 89° NE 05:41:40 10° SE
Meteor 2-4 Rocket 4.4 05:28:59 10° S 05:34:25 36° ESE 05:39:51 10° NE
NOAA 12 4.1 05:29:27 10° SSE 05:34:48 76° ENE 05:40:03 10° N
Helios 1A 3.6 05:32:53 10° NE 05:36:36 34° ESE 05:40:21 10° S
FengYun 1-2 T 4.4 05:33:10 10° S 05:38:49 80° WSW 05:44:21 10° NNW
SKYMED 2 3.8 05:36:00 10° N 05:40:23 78° WNW 05:44:50 10° SSW
Meteor 1-27 Rocket 3.7 05:36:29 10° S 05:42:07 89° W 05:47:40 10° N
ARIANE 5 R/B 2.7 05:37:01 10° SSE 05:42:22 87° WSW 05:47:36 10° NNW
H-2A R/B 3.7 05:40:31 10° S 05:43:37 38° WSW 05:46:38 10° NW
Cosmos 2297 3.7 05:38:22 10° NNW 05:43:58 74° ENE 05:49:40 10° SSE
Okean 1 3.7 05:41:25 10° SSW 05:45:19 65° W 05:49:11 10° N
ISS -3.6 05:43:07 10° WNW 05:46:32 73° SW 05:49:27 14° SE
PSLV R/B 4.2 05:44:59 10° SSE 05:48:49 34° E 05:52:36 10° NNE
COSMOS 2406 4.4 05:45:30 10° SW 05:51:04 49° WNW 05:56:35 10° N
ARGOS 3.9 05:45:48 10° S 05:51:06 54° WSW 05:56:19 10° NNW
Cosmos 2285 Rocket 4.5 05:45:43 10° SSW 05:52:01 67° WNW 05:58:16 10° N
SJ-11-01 4.3 05:47:36 10° SSE 05:52:26 85° ENE 05:57:11 10° NNW
Cosmos 1464 Rocket 4.0 05:46:20 10° N 05:52:29 67° E 05:58:45 10° SSE
H-2A ROCKET BODY 4.5 05:47:44 10° NNW 05:52:48 31° NE 06:09:06 10° E
COSMOS 2455 4.3 05:49:15 10° S 05:52:52 16° SE 05:54:52 14° ESE
USA 229 DEB 4.3 05:46:21 10° N 05:54:03 49° ENE 06:00:51 12° SE
USA 229 4.3 05:46:29 10° N 05:54:11 49° ENE 06:00:57 12° SE
Geosat 4.3 05:53:20 10° NNE 05:58:21 71° WNW 06:03:26 10° SSW
TRACE 4.5 05:55:27 10° NNE 05:58:51 59° ESE 06:02:22 10° S
Cosmos 1943 Rocket 4.2 05:56:36 10° WNW 06:00:54 23° SW 06:05:13 10° S
USA 307 1.5 06:00:43 10° WNW 06:02:19 44° SW 06:02:54 31° SSE
CZ-4C R/B 2.9 05:59:04 10° SSW 06:03:40 25° SE 06:05:48 19° ESE
SL-19 R/B 4.2 05:58:46 10° SSE 06:04:22 89° WSW 06:09:40 10° NNW
SL-08 R/B 3.2 06:03:06 10° NNE 06:07:42 75° ESE 06:12:22 10° S
USA 305 3.0 06:06:24 10° W 06:07:45 19° SSW 06:08:13 18° S
Transit 2A Rocket 4.4 06:09:47 10° SSW 06:14:07 78° ESE 06:18:26 10° NNE
Cosmos 1241 Rocket 4.4 06:10:51 10° SSW 06:17:17 77° ESE 06:23:33 10° NE
Milstar 3 4.1 06:11:51 10° NW 06:17:29 28° N 06:23:21 11° ENE
CORIOLIS 4.4 06:13:43 10° SSE 06:19:05 50° E 06:24:23 10° N
Cosmos 1634 Rocket 4.5 06:13:57 10° NNE 06:19:34 37° E 06:25:17 10° SSE
Okean 3 Rocket 4.4 06:15:59 10° NNE 06:19:58 31° E 06:21:16 26° ESE
Cosmos 2056 Rocket 4.5 06:15:44 10° NW 06:20:38 46° WSW 06:25:39 10° S
Cosmos 1656 Rocket 4.4 06:16:53 10° NW 06:22:28 53° WSW 06:28:04 10° SSE
Cosmos 1452 Rocket 3.7 06:17:31 10° N 06:22:38 52° ENE 06:26:14 19° SE
Cosmos 2263 4.2 06:17:26 10° NNW 06:23:13 86° ENE 06:28:26 13° SSE
Cosmos 1328 Rocket 3.7 06:19:33 10° S 06:23:53 51° E 06:28:07 10° NNE
Cosmos 1743 2.5 06:20:14 10° N 06:23:55 69° E 06:26:37 18° SSE
Cosmos 2195 Rocket 4.5 06:19:17 10° S 06:25:24 56° E 06:31:24 10° NNE
AQUARIUS 4.5 06:23:30 23° SE 06:25:57 43° E 06:30:12 10° N
Nadezhda 4 Rocket 4.0 06:21:53 10° S 06:28:09 87° W 06:34:24 10° N
SKYMED 3 4.3 06:24:33 10° NNE 06:28:37 89° ESE 06:32:44 10° SSW
BREEZE-M R/B 4.2 06:24:57 10° SW 06:29:08 44° SSE 06:32:44 26° E
Cosmos 1066 Rocket 4.3 06:25:13 10° S 06:31:00 61° ESE 06:36:48 10° NNE
Cosmos 968 Rocket 4.1 06:27:25 10° S 06:32:01 31° ESE 06:32:06 31° ESE
Cosmos 1151 Rocket 4.1 06:28:56 10° SSW 06:33:12 48° W 06:37:23 10° NNW
Cosmos 1850 Rocket 4.2 06:28:15 10° S 06:33:28 47° ESE 06:38:35 10° NE
ADEOS Rocket 3.8 06:32:52 28° ESE 06:34:19 30° E 06:40:06 10° NNE
Meteor 1-14 Rocket 4.3 06:30:03 10° N 06:35:38 56° E 06:40:14 15° SSE
USA 59 Rocket 2.8 06:28:31 10° NNE 06:36:06 30° ENE 06:39:02 26° ESE
OAO 2 Rocket 4.2 06:31:20 10° WNW 06:36:19 45° N 06:39:00 25° ENE
Meteor 1-18 Rocket 4.4 06:31:34 10° S 06:37:35 84° W 06:43:32 10° N
SMAP 3.0 06:34:18 13° SSE 06:38:36 82° ENE 06:43:18 10° N
Lacrosse 5 3.9 06:36:46 10° WSW 06:40:24 19° SSW 06:42:55 14° SSE
Cosmos 1092 Rocket 4.0 06:35:17 10° S 06:41:33 63° E 06:47:48 10° NNE
Cosmos 1110 Rocket 3.9 06:37:57 10° NNW 06:43:08 80° ENE 06:46:12 25° SSE
IKONOS-2 4.4 06:48:59 10° NNE 06:53:10 64° ESE 06:57:24 10° S
Cosmos 1766 Rocket 4.1 06:50:00 10° NNW 06:54:17 58° W 06:58:00 14° S
Meteor 1-31 Rocket 4.0 06:56:28 28° NNE 06:56:28 28° NNE 06:58:23 10° N
USA 306 4.5 06:52:47 10° WSW 06:55:24 18° SSW 06:55:39 18° SSW
Cosmos 1741 Rocket 3.9 06:51:00 10° SSW 06:56:17 71° ESE 07:01:30 10° NNE
Cosmos 2026 Rocket 4.0 06:54:15 10° S 07:00:44 88° ESE 07:07:04 10° N
Cosmos 1626 3.8 06:58:51 10° SSW 07:01:45 29° W 07:04:37 10° NNW
Cosmos 1833 4.2 06:57:08 10° SSW 07:02:59 89° WNW 07:08:43 10° NNE
Cosmos 2369 Rocket 3.8 07:05:08 10° WNW 07:10:10 31° WSW 07:14:50 12° S
CENTAUR R/B 3.8 07:12:43 10° SSW 07:14:55 19° S 07:14:55 19° S
Cosmos 2279 Rocket 3.8 07:14:03 10° N 07:20:18 76° E 07:21:59 51° SSE
Lacrosse 4 Rocket 3.1 07:17:18 10° NNW 07:19:14 25° N 07:19:14 25° N
Cosmos 2142 Rocket 4.4 07:15:56 10° N 07:21:47 65° ENE 07:21:47 65° ENE
ATLAS 3B R/B 4.3 07:18:09 10° W 07:23:37 25° SW 07:27:17 16° S
ISS -1.0 07:21:17 10° WSW 07:22:24 15° SW 07:22:24 15° SW
Cosmos 1726 4.4 07:21:33 10° NW 07:22:24 16° NW 07:22:24 16° NW
ATLAS 5 CENTAUR R/B 3.2 07:27:41 10° NW 07:33:50 40° WSW 07:33:50 40° WSW
COSMOS 2455 3.4 07:33:46 10° SSW 07:38:03 48° SSW 07:38:03 48° SSW
CZ-4C R/B 3.2 07:47:28 10° SW 07:50:56 34° WSW 07:50:56 34° WSW
Meteor 1-11 Rocket 4.3 07:49:32 10° NNW 07:54:45 58° WNW 07:54:45 58° WNW
ADEOS Rocket 4.0 08:19:48 44° WSW 08:19:52 44° WSW 08:26:05 10° NW
USA 59 Rocket 2.0 08:15:57 10° NW 08:25:28 83° SW 08:25:38 82° SW
USA 59 Rocket 3.8 10:08:32 10° W 10:12:15 22° WSW 10:12:15 22° WSW
